星链-1420 (STARLINK-1420 )

导读 | 豆包AI

STARLINK-1420是美国SpaceX星链互联网卫星项目中的一员,于2020年6月4日成功发射入轨。星链项目旨在构建全球卫星互联网星座,为全球偏远地区以及发达区域提供高速低延迟的宽带服务,该卫星是星链早期组网阶段发射的卫星,助力SpaceX完成星座初期部署。

基本信息
目录编号:
45695
目录名称:
STARLINK-1420
国际标识:
2020-035AQ
轨道中心:
EARTH
卫星名称:
星链-1420
卫星全名:
星链-1420 (STARLINK-1420 )
卫星状态:
在轨 (已飞行2130 天)
发射日期:
2020-06-04 UTC
国别 :
美国 (US)
星等 :
--
轨道信息
数据来源 国际轨道数据
星历时间: 2026-04-04T01:25:45+0800
7小时前
查看轨道信息
半长轴: 6769.423km
偏心率: 0.0004021
轨道倾角: 53.050°
近地点辐角 244.968°
升交点赤经 261.179°
平近点角 115.091°
近地点: 388.564km
远地点: 394.008km
周期: 92.382分钟
每日圈数: 15.587458
详细信息
固有亮度:
5
最大亮度:
2.5
卫星平台:
Starlink V1.0
覆盖范围:
全球
运营商:
太空探索技术公司
运营商所在国:
美国
制造商(研发单位):
太空探索技术公司
制造商所在国:
美国
使用方式:
暂无
卫星简介
星链(Starlink)计划是由太空探索技术公司(SpaceX)提出的一个巨型低轨卫星互联网星座项目,计划在2019年至2024年间在太空搭建由约1.2万颗卫星组成的“星链”网络,其中1584颗将部署在地球上空550千米处的近地轨道,并从2020年开始工作。该卫星仍在工作。
2D轨道图
3D轨道图
轨道高度分析图
轨道倾角分析图
轨道综合分析图
查看轨道综合分析图